Location: Unspecified
(29.9680°N, 0.0000°E)
Time: 19:27:33
(UTC+00:00)

Explorer 7 - Pass Details

Date: 30 June 2019
Orbit: 485 x 680 km, 50.3° (Epoch: 16 July)

Event Time Altitude Azimuth Distance (km) Brightness Sun altitude
Rises 11:03:36 0° 328° (NNW) 2,880 10.4 75.0°
Reaches altitude 10° 11:06:29 10° 347° (NNW) 2,010 9.7 75.5°
Maximum altitude 11:09:44 19° 31° (NNE) 1,558 9.4 76.2°
Drops below altitude 10° 11:13:05 10° 76° (ENE) 2,074 10.1 76.8°
Sets 11:16:07 0° 94° (E) 3,006 10.7 77.4°
